If you wish to contribute or participate in the discussions about articles you are invited to join SKYbrary as a registered user

 Actions

Aarhus Airport

From SKYbrary Wiki

EKAH
Airport
ICAO: EKAH – IATA: AAR
Summary
Name Aarhus Airport
Region Europe
Territory Denmark DK.gif
Location Tirstrup, Central Jutland Region
Serving Aarhus
Elevation 24.994 m
82 ft
82 ft24.994 m
Coordinates 56° 18' 11.4209", 10° 37' 4.3881"
Runways
Designator Length Width Surface ROPS
10L/28R 2777 m9,110.892 ft 23 m75.459 ft PEM yes/yes
10R/28L 2702 m8,864.829 ft 45 m147.638 ft PEM yes/yes


METAR
Observation EKAH 261420Z AUTO 25011KT 210V290 3300NDV BR OVC006/// 15/14 Q1018
Station Tirstrup
Date/Time 26 September 2018 14:20:00
Wind direction 250°
Wind speed 11 kts
Lowest cloud amount overcast
Temperature 15°C
Dew point 14°C
Humidity 93%
QNH 1018 hPa
Weather condition n/a

Aarhus Airport

ICAO: EKAH IATA: AAR

Description

International airport serving Aarhus, Denmark.

Climatology

Temperate Marine climate/Oceanic climate (Köppen climate classification Cfb). Moderately cool summer and comparatively warm winter with a temperature range of only 14°C287.15 K
57.2 °F
516.87 °R
. Prevailing south-westerly winds from the Atlantic Ocean.

Maps

Terrain

Loading map...

Airport Layout

Loading map...


Accidents & Serious Incidents at or in vicinity of EKAH

None on SKYbrary